Weather Roundup
Issued by NWS Springfield, MO

Home | Current Version | Previous Version | Text Only | Print | Product List | Glossary On
Versions: 1 2 3 4 5 6 7 8 9 10 11 12 13 14 15 16 17 18 19 20 21 22 23 24 25 26 27 28 29 30 31 32 33 34 35 36 37 38 39 40 41 42 43 44 45 46 47 48 49 50
000
NZUS99 KSGF 170807
HRRSGF

HOURLY WEATHER
NATIONAL WEATHER SERVICE SPRINGFIELD MO
300 AM CDT WED SEP 17 2014

......SGF CWA......

CITY           SKY/WX    TMP DP  RH WIND       PRES   REMARKS
SPRINGFIELD    CLOUDY    64  63  96 S13       30.03S FOG
JOPLIN         PTCLDY    66  65  96 S8        30.00F
WEST PLAINS    CLOUDY    63  59  87 S5        30.08S
ROLLA          CLOUDY    57  54  89 SE8       30.05S
OSAGE BEACH    CLOUDY    61  55  82 SE3       30.04F
BRANSON        FOG       64  63  94 SE5       30.05F VSB 1/2

......SURROUNDING SGF CWA......

CITY           SKY/WX    TMP DP  RH WIND       PRES   REMARKS
CHANUTE        MOCLDY    64  63  96 SE7       29.98F
PARSONS        CLOUDY    68  67  96 SE3       29.99F
COFFEYVILLE    PTCLDY    66  65  96 CALM      29.98F FOG
EMPORIA        MOCLDY    63  63 100 SE8       29.97F
GROVE OK       PTCLDY    68  68 100 CALM      30.01F FOG
ROGERS AR      CLOUDY    66  64  94 SE5       30.04F FOG
SILOAM SPRINGS CLEAR     64  61  88 SE3       30.04S
HARRISON AR    FOG       64  64 100 SE5       30.05F VSB 1/4
NEAR YELLVILLE CLOUDY    64  57  77 CALM      30.05F

......KANSAS AND MISSOURI......

CITY           SKY/WX    TMP DP  RH WIND       PRES   REMARKS
KANSAS CTY INT CLOUDY    63  58  83 SE7       29.98F
DOWNTOWN KC    MOCLDY    66  58  75 CALM      29.98F
COLUMBIA         N/A    N/A N/A N/A MISG      30.04F
SEDALIA        CLOUDY    62  58  86 S7        30.02F
ST JOSEPH      CLOUDY    62  57  83 SE3       29.98F
ST LOUIS       CLEAR     54  50  86 CALM      30.08F
SPIRIT OF STL  FOG       48  47  96 CALM      30.07S VSB 1/4
KIRKSVILLE     MOCLDY    52  51  97 SE6       30.03F
WICHITA        PTCLDY    65  63  93 S6        29.96F
TOPEKA         CLOUDY    65  61  87 SE6       29.97F
OLATHE         CLOUDY    63  59  87 SE12      29.97F

......TENNESSEE......

CITY           SKY/WX    TMP DP  RH WIND       PRES   REMARKS
MEMPHIS        CLEAR     66  60  81 NE6       30.03F
NASHVILLE      PTCLDY    57  54  89 N5        30.05F

......ARKANSAS.......

CITY           SKY/WX    TMP DP  RH WIND       PRES   REMARKS
FAYETTEVILLE   CLEAR     63  63 100 CALM      30.03F
FT SMITH       CLOUDY    70  67  90 E8        30.02F
LITTLE ROCK    CLEAR     64  59  83 NE3       30.04F

......OKLAHOMA.......

CITY           SKY/WX    TMP DP  RH WIND       PRES   REMARKS
TULSA          MOCLDY    72  69  90 S7        29.97F FOG
PONCA CITY     CLEAR     70  67  90 S7        29.96F
MCALESTER      PTCLDY    71  69  93 CALM      30.00F
OKLAHOMA CITY  MOCLDY    70  67  90 S5        30.00F

......IOWA............

CITY           SKY/WX    TMP DP  RH WIND       PRES   REMARKS
DES MOINES     CLOUDY    55  50  83 SE6       30.01F
QUAD CITIES    CLEAR     45  43  93 CALM      30.05F

......ILLINOIS........

CITY           SKY/WX    TMP DP  RH WIND       PRES   REMARKS
QUINCY         CLEAR     53  50  89 S5        30.05F
CHICAGO        CLEAR     52  46  80 CALM      30.06F



USA.gov is the U.S. government's official web portal to all federal, state and local government web resources and services.